SCP
0 0 0 0 0 0 0 0 0 0 0 0 0 0 0 0 0 0 0 0 0 0 0 0 0 0 0 0 0 0 0 0 0 0 0 0 0 0 0 0 0 0 0
0 0 0 0 0 0 0 0 0 0 0 0 0 0 0 0 0 0 0 0 0 0 0 0 0 0 0 0 0 0 0 0 0 0 0 0 0 0 0 0 0 0 0
1 1 1 1 1 1 1 1 1 1 0 0 0 0 0 0 0 0 0 0 0 0 0 0 0 0 0 0 0 0 0 0 0 0 0 0 0 0 0 0 0 0 0
1 1 1 1 1 1 1 1 1 1 1 0 0 0 0 0 0 0 0 0 0 0 0 0 0 1 1 0 0 0 0 0 0 0 0 0 0 0 0 0 0 0 0
1 1 1 1 1 1 1 1 1 1 1 1 0 0 0 0 0 0 0 0 0 0 0 0 0 1 1 0 0 0 0 0 0 0 0 0 0 0 0 0 0 0 0
1 1 1 1 1 1 1 1 1 1 1 1 0 0 0 0 0 0 0 0 0 0 0 0 0 0 0 0 0 0 0 0 0 0 0 0 0 0 0 0 0 0 0
1 1 1 1 1 1 1 1 1 1 1 1 1 0 0 0 0 0 0 0 0 0 0 0 0 0 0 0 0 0 0 0 0 0 0 0 0 0 0 0 0 0 0
1 1 1 1 1 1 1 1 1 1 1 1 1 1 0 0 0 0 0 0 0 0 0 0 0 0 0 0 0 0 0 0 0 0 0 0 0 0 0 0 0 0 0
2 1 1 1 1 1 1 1 1 1 1 1 1 1 1 0 0 0 0 0 0 0 0 0 0 0 1 1 0 0 0 0 0 0 0 0 0 0 0 0 0 0 0
2 2 1 1 1 1 1 1 1 1 1 1 1 1 1 1 0 0 0 0 0 0 0 0 0 0 1 1 1 0 0 0 0 0 0 0 0 0 0 0 0 0 0
2 1 1 1 1 1 1 1 1 1 1 1 1 1 1 1 0 0 0 0 0 0 0 0 0 0 1 1 0 0 0 0 0 0 0 0 0 0 0 0 0 0 0
1 1 1 1 1 1 1 1 1 1 1 1 1 1 1 1 0 0 0 0 0 0 0 0 0 0 0 0 0 0 0 0 0 0 0 0 0 0 0 0 0 0 0
1 1 1 1 1 1 1 1 1 1 1 1 1 1 1 1 0 0 0 0 0 0 0 0 0 0 0 0 0 0 0 0 0 0 0 0 0 0 0 0 0 0 0
1 1 1 1 1 1 1 1 1 1 1 1 1 1 1 1 0 0 0 0 0 0 0 0 0 0 0 0 0 0 0 0 0 0 0 0 0 0 0 0 0 0 0
1 1 1 1 1 1 1 1 1 1 1 1 1 1 1 0 0 0 0 0 0 0 0 0 0 0 0 0 0 0 0 0 0 0 0 0 0 0 0 0 0 0 0
1 1 1 1 1 1 1 1 1 1 1 1 1 1 0 0 0 0 0 0 0 0 0 0 0 0 0 0 0 0 0 0 0 0 0 0 0 0 0 0 0 0 0
1 1 1 1 1 1 1 1 1 1 1 1 1 0 0 0 0 0 0 0 0 0 0 0 0 0 0 0 0 0 0 0 0 0 0 0 0 0 0 0 0 0 0
1 1 1 1 1 1 1 1 1 1 0 0 0 0 0 0 0 0 0 0 0 0 0 0 0 0 0 0 0 0 0 0 0 0 0 0 0 0 0 0 0 0 0
1 1 1 1 1 1 1 1 1 0 0 0 0 0 0 0 0 0 0 0 0 0 0 0 0 0 0 0 0 0 0 0 0 0 0 0 0 0 0 0 0 0 0
1 1 1 1 1 1 1 0 0 0 0 0 0 0 0 0 0 0 0 0 0 0 0 0 0 0 0 0 0 0 0 0 0 0 0 0 0 0 0 0 0 0 0
1 1 1 1 1 1 0 0 0 0 0 0 0 0 0 0 0 0 0 0 0 0 0 0 0 0 0 0 0 0 0 0 0 0 0 0 0 0 0 0 0 0 0
1 1 1 1 1 0 0 0 0 0 0 0 0 0 0 0 0 0 0 0 0 0 0 0 0 0 0 0 0 0 0 0 0 0 0 0 0 0 0 0 0 0 0
1 1 0 0 0 0 0 0 0 0 0 0 0 0 0 0 0 0 0 0 0 0 0 0 0 0 0 0 0 0 0 0 0 0 0 0 0 0 0 0 0 0 0
0 0 0 0 0 0 0 0 0 0 0 0 0 0 0 0 0 0 0 0 0 0 0 0 0 0 0 0 0 0 0 0 0 0 0 0 0 0 0 0 0 0 0
1 1 1 1 1 0 0 0 0 0 0 0 0 0 0 0 0 0 0 0 0 0 0 0 0 0 0 0 0 0 0 0 0 0 0 0 0 0 0 0 0 0 0
1 1 1 1 1 0 0 0 0 0 0 0 0 0 0 0 0 0 0 0 0 0 0 0 0 0 0 0 0 0 0 0 0 0 0 0 0 0 0 0 0 0 0
Wind_Speed
2 2 2 2 3 2 3 2 2 1 1 1 2 2 1 1 2 3 5 11 11 11 10 10 10 9 10 10 10 9 9 8 8 8 8 7 7 7 7 7 6 6 6
3 2 2 2 2 1 1 2 2 1 1 1 1 2 2 1 1 3 4 7 11 11 10 10 10 10 10 10 10 10 9 8 8 8 8 8 8 8 8 8 7 6 6
3 2 2 2 2 1 1 1 2 1 2 2 2 2 2 1 1 2 3 4 6 10 11 11 11 10 10 10 11 11 10 9 9 9 8 8 8 8 8 8 7 7 6
4 3 2 3 2 1 1 1 2 2 2 2 2 2 2 1 1 2 2 3 4 5 8 11 11 11 11 11 11 11 10 9 9 9 9 9 9 8 8 8 8 7 7
4 3 3 2 3 2 2 3 2 1 2 2 2 3 2 2 2 3 3 3 3 3 4 9 12 12 12 12 11 11 10 9 9 9 9 9 9 9 8 8 8 8 7
5 4 3 3 3 2 2 2 1 2 2 2 4 3 2 2 2 3 4 3 3 4 5 5 6 8 13 12 11 11 11 10 9 9 9 9 9 9 9 9 8 8 8
4 4 2 3 3 2 2 3 2 3 3 2 2 2 2 3 3 3 3 3 4 4 4 5 5 4 6 11 12 11 11 11 10 9 9 9 8 9 9 9 9 9 8
4 4 3 3 3 2 2 2 2 2 2 2 1 1 1 1 3 5 3 4 4 3 4 6 5 5 4 4 8 12 11 10 10 10 10 9 9 9 9 10 10 9 9
4 3 4 3 3 3 2 2 3 3 2 2 2 1 1 1 1 1 3 3 4 3 4 4 5 5 5 4 5 10 12 11 11 11 10 10 9 9 9 9 10 10 10
5 5 4 4 3 2 3 4 3 2 3 2 2 2 2 1 0 1 2 2 3 4 4 4 5 5 5 4 5 9 12 11 11 11 10 10 10 9 9 9 9 9 10
5 5 4 4 4 3 3 3 2 2 2 3 2 2 2 2 2 2 2 1 1 2 3 4 3 3 4 4 4 7 11 12 11 11 10 10 10 10 10 11 10 9 9
4 4 4 3 3 3 3 3 2 3 3 3 2 2 2 2 2 2 2 2 2 2 3 3 3 3 4 4 6 9 11 12 12 11 11 11 11 10 11 11 11 11 10
3 4 4 3 3 3 3 3 3 4 4 3 3 3 2 3 2 2 2 2 2 2 2 2 3 3 3 3 4 9 11 13 13 12 12 11 11 11 11 11 12 11 11
3 4 4 4 4 4 4 3 3 4 3 3 4 3 3 3 2 1 2 2 2 2 2 3 2 3 2 3 5 9 7 12 13 13 12 12 11 11 11 11 11 10 10
2 3 3 3 3 3 4 3 3 3 3 3 3 3 3 3 2 2 2 2 3 3 3 3 2 2 2 2 5 5 5 9 12 12 12 12 12 11 11 11 11 10 10
1 2 3 3 3 3 3 3 3 3 3 3 3 3 3 3 2 2 2 3 3 3 3 3 3 2 2 3 5 4 4 8 11 12 13 12 12 12 12 12 12 11 11
2 2 3 3 3 3 3 3 4 3 4 4 4 4 4 4 2 2 2 2 3 3 4 3 2 2 2 2 2 3 4 5 6 12 13 13 13 13 13 13 12 12 12
2 2 3 3 4 3 3 3 4 4 4 4 4 3 3 3 3 2 2 3 3 3 3 4 3 2 3 3 3 4 5 5 4 9 13 13 13 13 13 12 13 13 13
2 3 2 3 4 3 3 4 4 4 4 4 3 3 3 3 3 2 3 3 3 3 3 4 4 3 2 3 3 4 4 3 4 6 10 12 13 13 13 13 13 13 13
3 3 3 3 3 3 3 3 3 3 3 3 3 4 4 4 3 4 3 3 3 3 3 3 3 3 2 2 2 2 3 3 3 4 5 7 9 12 13 13 13 12 12
3 2 3 3 3 2 3 2 3 4 3 3 4 4 4 4 4 4 4 3 3 3 3 3 3 2 2 2 2 2 3 2 3 2 2 3 4 4 6 10 12 13 13
2 3 3 3 3 3 2 2 2 3 3 3 4 4 4 5 5 6 6 6 5 4 4 3 3 3 3 3 2 3 2 2 2 1 2 3 3 4 5 6 10 13 13
2 3 3 3 3 3 3 3 3 4 4 4 4 3 4 3 4 4 5 7 7 8 7 5 4 4 3 2 2 3 3 2 3 2 2 3 3 3 4 6 10 12 14
2 3 4 3 3 4 4 3 4 5 5 4 3 4 4 3 3 3 4 4 4 5 6 6 5 5 5 3 3 4 4 4 4 3 3 3 3 4 4 3 9 13 13
3 4 4 4 4 4 4 4 4 4 4 4 4 4 4 3 3 3 3 3 4 4 5 7 6 6 6 5 3 2 3 3 4 3 2 2 3 3 3 3 5 11 13
4 4 4 4 4 4 5 6 5 3 3 3 3 3 3 3 4 4 4 3 4 4 4 4 4 5 6 6 7 6 5 4 3 3 3 2 2 2 3 3 3 3 6
Wind_Direction
167 158 177 177 194 185 180 190 228 237 224 244 267 264 277 251 144 140 146 168 172 178 184 191 193 196 198 197 196 196 198 199 198 194 193 193 195 194 192 194 195 194 193
165 168 179 185 220 192 173 180 193 219 245 253 273 284 295 301 149 153 159 173 180 182 188 193 196 200 202 202 201 200 200 199 199 196 195 195 198 197 194 197 200 198 195
172 165 182 190 210 187 170 195 209 199 219 226 228 245 257 261 243 175 174 170 179 188 193 197 201 201 202 202 203 203 201 203 205 200 198 198 199 196 196 194 196 197 195
177 172 193 192 183 175 179 196 216 213 223 245 238 243 235 208 215 214 203 189 181 185 192 197 199 201 202 203 205 203 203 204 207 205 204 204 202 197 195 197 198 197 199
183 190 202 175 179 184 200 214 190 218 230 243 243 228 242 214 205 222 211 207 183 183 179 189 197 202 203 205 205 203 202 202 204 206 206 207 205 199 198 200 201 200 203
192 199 194 177 193 192 203 209 192 205 230 235 255 241 225 226 212 212 217 208 192 200 193 189 187 202 204 205 204 206 206 207 207 208 208 206 206 202 200 201 205 208 207
194 195 192 187 201 199 205 206 204 220 230 222 253 267 237 222 213 213 218 208 204 209 197 193 190 188 194 203 206 205 208 210 209 210 210 208 205 204 204 206 208 211 212
197 195 184 199 196 204 213 220 215 230 245 208 196 244 267 240 234 221 206 202 205 209 206 205 187 185 192 188 200 204 206 207 210 212 210 208 206 207 207 209 209 209 212
194 204 190 202 204 198 208 219 216 216 233 234 204 209 239 242 248 228 221 204 191 200 209 206 194 193 197 185 187 201 203 206 209 212 212 209 208 211 212 213 214 213 213
191 199 199 201 205 211 204 221 201 219 223 232 232 226 238 276 259 294 276 222 206 207 213 218 205 198 199 186 191 188 194 201 208 210 213 213 212 215 217 218 219 219 218
193 198 197 200 202 215 207 226 202 210 220 231 233 227 238 241 229 228 258 259 243 224 215 222 219 204 202 190 184 194 190 196 202 207 211 214 216 220 223 220 218 222 224
190 196 200 194 197 206 207 217 210 218 223 229 248 253 234 225 231 227 242 249 246 240 227 213 210 208 202 190 199 190 189 196 201 207 211 214 217 221 223 220 219 224 226
190 191 197 182 195 206 210 208 212 224 221 222 230 244 245 245 246 232 241 251 261 260 244 225 210 209 212 185 186 189 196 197 200 205 210 213 217 219 220 222 223 224 226
197 182 188 188 198 200 213 207 219 222 215 216 229 231 244 252 247 231 232 240 260 259 249 251 221 206 214 190 191 190 196 198 201 204 208 212 215 218 220 222 223 224 224
201 162 178 194 213 217 216 205 221 222 211 212 226 222 230 249 242 237 236 233 238 254 254 244 238 229 221 185 184 201 199 198 203 205 208 210 213 215 217 217 215 214 214
195 174 188 204 208 218 225 214 228 219 206 213 219 217 228 247 252 246 241 245 247 249 257 245 240 215 230 235 192 203 210 200 208 207 209 211 213 214 214 214 212 211 210
188 189 195 209 212 216 222 220 233 223 214 218 226 221 222 235 245 252 255 254 251 247 260 266 253 233 223 241 218 225 216 203 204 208 208 210 213 214 214 215 213 213 212
198 208 208 216 226 221 218 221 236 235 224 225 229 228 224 234 241 248 254 258 261 256 253 265 264 240 232 219 224 233 235 223 211 206 205 209 212 214 216 215 214 213 213
201 209 217 229 230 222 221 228 232 239 235 232 225 231 233 235 235 242 253 258 262 265 250 252 258 241 228 223 227 250 251 238 235 214 203 208 211 214 216 217 215 214 213
215 216 221 227 238 234 236 241 237 241 239 237 229 229 233 227 227 243 248 249 254 265 266 254 249 241 233 229 215 235 255 239 237 234 207 207 211 210 215 217 217 216 215
220 221 232 236 235 228 242 237 253 248 244 245 241 236 238 226 227 233 246 248 257 257 262 262 253 245 241 233 228 235 247 245 245 243 219 216 203 208 214 220 220 218 217
220 228 239 242 240 243 218 216 248 269 260 247 246 245 238 223 219 220 229 236 235 245 253 259 261 250 243 241 247 251 254 254 260 243 244 246 219 213 214 213 211 210 212
234 249 254 245 231 225 214 223 240 260 259 251 250 245 252 233 216 226 226 232 238 239 235 238 258 267 265 252 257 267 259 257 256 242 236 254 241 238 229 228 210 208 211
242 255 259 252 237 224 213 228 251 247 251 247 240 233 233 232 236 238 239 232 233 234 232 231 238 250 258 250 238 246 252 257 255 242 216 239 247 247 245 225 207 211 216
239 244 250 244 233 212 210 217 234 256 249 249 246 241 227 221 229 225 229 241 248 250 248 243 240 246 250 250 248 265 257 246 261 255 221 224 242 248 248 241 223 215 216
244 247 245 241 235 209 203 207 215 246 261 261 242 230 213 213 222 210 221 237 247 256 267 269 261 261 250 244 232 225 235 240 255 260 232 221 241 239 258 242 222 203 214